Home > Weather > West Palm Beach > Past weeks

Flag for USA Past Weather in West Palm Beach, Florida, USA — Yesterday and Last 2 Weeks

Now
86 °F

Scattered clouds.


Feels Like: 94 °F
Forecast: 79 / 89 °F
Wind: 13 mph from Southeast

Location: Palm Beach International Airport

Current Time: Jun 24, 2016 at 7:54:30 PM

Latest Report: Jun 24, 2016 at 6:53 PM


Visibility: 10 mi

Pressure: 30.06 "Hg

Humidity: 67%

Dew Point: 74 °F

Location of West Palm BeachLocation

Past Weather in West Palm Beach — Graph

°F

West Palm Beach Temperature Yesterday

Maximum temperature yesterday: 87 °F (at 10:53 AM)
Minimum temperature yesterday: 80 °F (at 4:53 AM)
Average temperature yesterday: 84 °F

High & Low Weather Summary for the Past Weeks

 TemperatureHumidityPressure
High91 °F (Jun 15, 1:53 PM)100% (Jun 10, 5:53 AM)30.16 "Hg (Jun 10, 5:53 AM)
Low73 °F (Jun 11, 3:53 AM)53% (Jun 12, 5:53 PM)29.92 "Hg (Jun 17, 6:53 PM)
Average82 °F75%30.06 "Hg
* Reported Jun 9 5:58 PM — Jun 24 5:53 PM, West Palm Beach, Weather by CustomWeather, © 2016

Note: Actual official high and low records may vary slightly from our data, if they occured in-between our weather recording intervals... More about our weather records

Advertising

West Palm Beach Weather History for the Previous 24 Hours

Scroll right to see more
 ConditionsComfort  
Time TempWeatherWind HumidityBarometerVisibility
5:53 PM
Fri, Jun 24
87 °FScattered clouds.13 mph67%30.08 "Hg10 mi
4:53 PM89 °FScattered clouds.14 mph57%30.07 "Hg10 mi
3:53 PM88 °FScattered clouds.12 mph63%30.08 "Hg10 mi
2:53 PM89 °FScattered clouds.13 mph57%30.09 "Hg10 mi
1:53 PM89 °FScattered clouds.8 mph61%30.11 "Hg10 mi
12:53 PM89 °FThunderstorms. Broken clouds.9 mph61%30.13 "Hg10 mi
11:53 AM89 °FBroken clouds.14 mph63%30.13 "Hg10 mi
10:53 AM87 °FBroken clouds.8 mph65%30.12 "Hg10 mi
9:53 AM87 °FScattered clouds.7 mph69%30.13 "Hg10 mi
8:53 AM85 °FScattered clouds.3 mph75%30.12 "Hg10 mi
7:53 AM82 °FScattered clouds.No wind79%30.11 "Hg10 mi
6:53 AM79 °FPassing clouds.No wind82%30.09 "Hg10 mi
5:53 AM78 °FPartly cloudy.6 mph82%30.09 "Hg10 mi
4:53 AM77 °FPartly cloudy.8 mph85%30.08 "Hg10 mi
3:53 AM82 °FPassing clouds.No wind79%30.08 "Hg10 mi
2:53 AM83 °FPassing clouds.5 mph79%30.08 "Hg10 mi
1:53 AM83 °FPassing clouds.3 mph77%30.09 "Hg10 mi
12:53 AM83 °FPassing clouds.7 mph77%30.10 "Hg10 mi
11:53 PM
Thu, Jun 23
83 °FPassing clouds.9 mph77%30.10 "Hg10 mi
10:53 PM83 °FPassing clouds.9 mph72%30.10 "Hg10 mi
9:53 PM84 °FPassing clouds.8 mph70%30.09 "Hg10 mi
8:53 PM84 °FScattered clouds.6 mph67%30.08 "Hg10 mi
7:53 PM85 °FScattered clouds.7 mph65%30.07 "Hg10 mi
Weather by CustomWeather, © 2016

See weather overviewHow to use our weather pages